Notices

What's New in latest Release from April 7th, 2021:

- Updated Glossary, including Speed of Maximum Gust, and Total Hourly Precipitation

- Updated national and regional climate services offices contacts and prices information

- Addition of station inventory lists for 1981-2010, 1971-2000, and 1961-1990 Normals.

If you haven't already, please take our survey and provide feedback about our website: https://eccc.sondage-survey.ca/f/LanguageSelection.aspx?s=442ca660-fcf1-47c0-95a9-59707d6fd709

Hourly Data Report for March 06, 2021

NANAIMO A
BRITISH COLUMBIA
Current Station Operator: NAVCAN

49°03'16.000" N
123°52'12.000" W
28.00 m
1025365
YCD

Download Data

Hourly Data (March 2021)
Hourly Data Report for March 6, 2021
TIME
LST
Temp Definition
°C
Dew Point Definition
°C
Rel Hum Definition
%
Precip. Amount Definition
mm

Wind Dir Definition
10's deg

Wind Spd Definition
km/h
Visibility Definition
km
Stn Press Definition
kPa
Hmdx Definition


Wind Chill Definition


Weather Definition


00:00 6.2 1.2 70 LegendMM 10 28 LegendMM 100.65     LegendNANA
01:00 5.9 1.3 72 LegendMM 22 4 LegendMM 100.68     LegendNANA
02:00 6.9 0.4 63 LegendMM 11 19 LegendMM 100.71     LegendNANA
03:00 5.9 1.0 71 LegendMM 14 21 LegendMM 100.73     LegendNANA
04:00 5.6 1.7 76 LegendMM 10 10 LegendMM 100.71     LegendNANA
05:00 5.2 1.7 78 LegendMM 16 19 LegendMM 100.77     LegendNANA
06:00 4.5 2.2 85 LegendMM 16 13 LegendMM 100.80     LegendNANA
07:00 2.4 1.5 94 LegendMM 31 3 LegendMM 100.87     LegendNANA
08:00 3.4 2.3 93 LegendMM 26 6 LegendMM 100.95     LegendNANA
09:00 7.4 3.8 78 LegendMM 15 14 LegendMM 100.98     LegendNANA
10:00 8.6 3.1 68 LegendMM 15 16 LegendMM 101.03     LegendNANA
11:00 10.2 2.4 58 LegendMM 20 14 LegendMM 101.07     LegendNANA
12:00 10.7 0.4 49 LegendMM 22 12 LegendMM 101.10     LegendNANA
13:00 10.3 0.5 50 LegendMM 20 18 LegendMM 101.10     LegendNANA
14:00 10.0 0.9 53 LegendMM 21 11 LegendMM 101.10     LegendNANA
15:00 10.2 -0.1 49 LegendMM 22 18 LegendMM 101.10     LegendNANA
16:00 8.7 1.0 58 LegendMM 22 8 LegendMM 101.14     LegendNANA
17:00 8.6 0.7 58 LegendMM 23 8 LegendMM 101.11     LegendNANA
18:00 7.6 0.2 59 LegendMM 23 6 LegendMM 101.05     LegendNANA
19:00 6.6 1.4 69 LegendMM 18 8 LegendMM 101.03     LegendNANA
20:00 6.7 1.3 68 LegendMM 13 10 LegendMM 100.99     LegendNANA
21:00 5.8 2.2 77 LegendMM 34 2 LegendMM 100.94     LegendNANA
22:00 4.9 3.7 92 LegendMM 26 8 LegendMM 100.92     LegendNANA
23:00 4.7 3.0 89 LegendMM 4 4 LegendMM 100.86     LegendNANA

Notes on Data Quality.

Legend

  • E = Estimated
  • M = Missing
  • NA = Not Available*
  • [empty] = Indicates an unobserved value
Date modified: